| time (UTC) | temp F | wind direction | speed MPH | gust MPH | rain 1hr in | rain 24hr in | rain mn in | humidity % | barometer mb |
| 20260510051524 | 75 | 117 | 5.0 | 9.0 | 0.00 | 0.00 | 0.00 | 86 | 1013.6 |
| 20260510050027 | 75 | 115 | 5.0 | 9.0 | 0.00 | 0.00 | 0.00 | 85 | 1013.5 |
| 20260510044540 | 76 | 128 | 8.0 | 11.0 | 0.00 | 0.00 | 0.00 | 86 | 1013.2 |
| 20260510043009 | 76 | 128 | 6.0 | 8.0 | 0.00 | 0.00 | 0.00 | 84 | 1013.4 |
| 20260510041509 | 76 | 118 | 5.0 | 11.0 | 0.00 | 0.00 | 0.00 | 83 | 1013.4 |
| 20260510040008 | 77 | 132 | 7.0 | 11.0 | 0.00 | 0.00 | 0.00 | 83 | 1013.2 |
| 20260510034513 | 77 | 116 | 7.0 | 13.0 | 0.00 | 0.00 | 0.00 | 82 | 1013.5 |
| 20260510033015 | 77 | 101 | 6.0 | 10.0 | 0.00 | 0.00 | 0.00 | 80 | 1013.5 |
| 20260510031517 | 77 | 119 | 7.0 | 12.0 | 0.00 | 0.00 | 0.00 | 79 | 1013.1 |
| 20260510030019 | 78 | 125 | 8.0 | 12.0 | 0.00 | 0.00 | 0.00 | 78 | 1012.6 |
| 20260510024523 | 78 | 141 | 7.0 | 11.0 | 0.00 | 0.00 | 0.00 | 77 | 1012.5 |
| 20260510023025 | 79 | 127 | 7.0 | 9.0 | 0.00 | 0.00 | 0.00 | 76 | 1012.2 |
| 20260510021534 | 80 | 96 | 5.0 | 11.0 | 0.00 | 0.00 | 0.00 | 77 | 1011.8 |
| 20260510020033 | 80 | 144 | 7.0 | 9.0 | 0.00 | 0.00 | 0.00 | 76 | 1011.2 |
| 20260510014540 | 81 | 162 | 9.0 | 14.0 | 0.00 | 0.00 | 0.00 | 75 | 1010.5 |
| 20260510013038 | 82 | 157 | 4.0 | 11.0 | 0.00 | 0.00 | 0.00 | 75 | 1010.5 |
| 20260510011541 | 81 | 155 | 5.0 | 9.0 | 0.00 | 0.00 | 0.00 | 75 | 1010.4 |
| 20260510010043 | 82 | 335 | 6.0 | 11.0 | 0.00 | 0.00 | 0.00 | 72 | 1010.6 |
| 20260510004548 | 85 | 145 | 6.0 | 9.0 | 0.00 | 0.00 | 0.00 | 74 | 1009.9 |
| 20260510003059 | 85 | 136 | 4.0 | 5.0 | 0.00 | 0.00 | 0.00 | 75 | 1010.3 |
| 20260510001559 | 86 | 136 | 4.0 | 7.0 | 0.00 | 0.00 | 0.00 | 74 | 1010.0 |
| 20260510000007 | 86 | 142 | 6.0 | 9.0 | 0.00 | 0.00 | 0.00 | 72 | 1009.8 |
| 20260509234507 | 87 | 128 | 6.0 | 10.0 | 0.00 | 0.00 | 0.00 | 72 | 1009.6 |
| 20260509233011 | 87 | 141 | 7.0 | 10.0 | 0.00 | 0.00 | 0.00 | 72 | 1009.9 |
| 20260509231518 | 86 | 175 | 5.0 | 10.0 | 0.00 | 0.00 | 0.00 | 74 | 1009.8 |
| 20260509230023 | 87 | 140 | 6.0 | 10.0 | 0.00 | 0.00 | 0.00 | 75 | 1009.7 |
| 20260509224524 | 87 | 132 | 5.0 | 10.0 | 0.00 | 0.00 | 0.00 | 75 | 1009.6 |
| 20260509223025 | 87 | 136 | 4.0 | 8.0 | 0.00 | 0.00 | 0.00 | 78 | 1009.4 |
| 20260509221535 | 87 | 250 | 5.0 | 10.0 | 0.00 | 0.00 | 0.00 | 77 | 1009.4 |
| 20260509220034 | 86 | 78 | 0.0 | 5.0 | 0.00 | 0.00 | 0.00 | 81 | 1009.5 |
| 20260509214548 | 86 | 317 | 1.0 | 6.0 | 0.00 | 0.00 | 0.00 | 79 | 1009.5 |
| 20260509213044 | 87 | 286 | 2.0 | 7.0 | 0.00 | 0.00 | 0.00 | 80 | 1009.4 |
| 20260509211552 | 86 | 233 | 6.0 | 10.0 | 0.00 | 0.00 | 0.00 | 78 | 1009.4 |
| 20260509210059 | 85 | 310 | 2.0 | 7.0 | 0.00 | 0.00 | 0.00 | 80 | 1009.6 |
| 20260509204600 | 85 | 336 | 5.0 | 8.0 | 0.00 | 0.00 | 0.00 | 80 | 1009.8 |
| 20260509204502 | 85 | 293 | 6.0 | 8.0 | 0.00 | 0.00 | 0.00 | 80 | 1009.7 |
| 20260509203001 | 84 | 333 | 5.0 | 7.0 | 0.00 | 0.00 | 0.00 | 81 | 1010.0 |
| 20260509201504 | 84 | 298 | 4.0 | 7.0 | 0.00 | 0.00 | 0.00 | 83 | 1010.1 |
| 20260509200004 | 83 | 288 | 5.0 | 8.0 | 0.00 | 0.00 | 0.00 | 83 | 1010.3 |
| 20260509194508 | 82 | 298 | 2.0 | 8.0 | 0.00 | 0.00 | 0.00 | 85 | 1010.4 |
| 20260509193012 | 83 | 293 | 5.0 | 8.0 | 0.00 | 0.00 | 0.00 | 85 | 1010.6 |
| 20260509191517 | 82 | 289 | 6.0 | 9.0 | 0.00 | 0.00 | 0.00 | 86 | 1010.5 |
| 20260509190022 | 81 | 311 | 8.0 | 11.0 | 0.00 | 0.00 | 0.00 | 86 | 1010.5 |
| 20260509184535 | 81 | 302 | 5.0 | 11.0 | 0.00 | 0.00 | 0.00 | 87 | 1010.6 |
| 20260509183030 | 80 | 219 | 2.0 | 7.0 | 0.00 | 0.00 | 0.00 | 89 | 1010.8 |
| 20260509181530 | 79 | 312 | 4.0 | 7.0 | 0.00 | 0.00 | 0.00 | 89 | 1011.2 |
| 20260509180032 | 79 | 336 | 5.0 | 8.0 | 0.00 | 0.00 | 0.00 | 89 | 1011.4 |
| 20260509174534 | 79 | 355 | 5.0 | 9.0 | 0.00 | 0.00 | 0.00 | 91 | 1011.8 |
| 20260509173044 | 78 | 324 | 6.0 | 9.0 | 0.00 | 0.00 | 0.00 | 91 | 1012.1 |
| 20260509171541 | 78 | 306 | 5.0 | 7.0 | 0.00 | 0.00 | 0.00 | 92 | 1012.3 |
| 20260509170032 | 78 | 24 | 1.0 | 5.0 | 0.00 | 0.00 | 0.00 | 93 | 1012.3 |
| 20260509164537 | 78 | 189 | 3.0 | 6.0 | 0.00 | 0.00 | 0.00 | 93 | 1012.4 |
| 20260509163021 | 78 | 151 | 5.0 | 7.0 | 0.00 | 0.00 | 0.00 | 93 | 1012.4 |
| 20260509161529 | 78 | 150 | 3.0 | 7.0 | 0.00 | 0.00 | 0.00 | 93 | 1012.3 |
| 20260509160028 | 77 | 135 | 3.0 | 8.0 | 0.00 | 0.00 | 0.00 | 93 | 1012.1 |
| 20260509154536 | 77 | 151 | 5.0 | 8.0 | 0.00 | 0.00 | 0.00 | 93 | 1011.9 |
| 20260509153038 | 77 | 189 | 2.0 | 5.0 | 0.00 | 0.00 | 0.00 | 94 | 1012.1 |
| 20260509151544 | 76 | 132 | 4.0 | 9.0 | 0.00 | 0.00 | 0.00 | 94 | 1011.7 |
| 20260509150100 | 76 | 134 | 7.0 | 11.0 | 0.00 | 0.00 | 0.00 | 94 | 1011.4 |
| 20260509144656 | 76 | 150 | 8.0 | 13.0 | 0.00 | 0.00 | 0.00 | 94 | 1011.5 |
| 20260509143051 | 76 | 144 | 7.0 | 12.0 | 0.00 | 0.00 | 0.00 | 94 | 1011.6 |
| 20260509141600 | 75 | 113 | 3.0 | 7.0 | 0.00 | 0.00 | 0.00 | 94 | 1011.5 |
| 20260509141505 | 75 | 113 | 2.0 | 7.0 | 0.00 | 0.00 | 0.00 | 94 | 1011.6 |
| 20260509140007 | 76 | 117 | 4.0 | 6.0 | 0.00 | 0.01 | 0.00 | 94 | 1011.2 |
| 20260509134512 | 76 | 92 | 3.0 | 6.0 | 0.00 | 0.01 | 0.00 | 94 | 1011.4 |
| 20260509133019 | 75 | 290 | 2.0 | 6.0 | 0.00 | 0.01 | 0.00 | 94 | 1012.2 |
| 20260509131522 | 75 | 297 | 3.0 | 6.0 | 0.00 | 0.01 | 0.00 | 94 | 1012.4 |
| 20260509130023 | 75 | 249 | 5.0 | 7.0 | 0.00 | 0.04 | 0.00 | 94 | 1012.3 |
| 20260509124526 | 75 | 164 | 4.0 | 5.0 | 0.00 | 0.04 | 0.00 | 94 | 1012.3 |
| 20260509123030 | 75 | 274 | 4.0 | 8.0 | 0.00 | 0.04 | 0.00 | 94 | 1012.1 |
| 20260509121535 | 74 | 150 | 0.0 | 4.0 | 0.00 | 0.04 | 0.00 | 93 | 1012.1 |
| 20260509120040 | 74 | 38 | 0.0 | 0.0 | 0.00 | 0.04 | 0.00 | 93 | 1012.4 |
| 20260509114545 | 74 | 355 | 0.0 | 1.0 | 0.00 | 0.04 | 0.00 | 93 | 1012.1 |
| 20260509113054 | 74 | 355 | 0.0 | 4.0 | 0.00 | 0.04 | 0.00 | 93 | 1011.4 |
| 20260509111555 | 74 | 355 | 0.0 | 0.0 | 0.00 | 0.04 | 0.00 | 93 | 1011.6 |
| 20260509110004 | 74 | 355 | 0.0 | 0.0 | 0.00 | 0.04 | 0.00 | 94 | 1011.7 |
| 20260509104527 | 74 | 58 | 1.0 | 4.0 | 0.00 | 0.04 | 0.00 | 93 | 1011.0 |
| 20260509103011 | 74 | 96 | 0.0 | 1.0 | 0.00 | 0.04 | 0.00 | 93 | 1011.4 |
| 20260509101517 | 74 | 98 | 0.0 | 0.0 | 0.00 | 0.04 | 0.00 | 93 | 1011.2 |
| 20260509100029 | 74 | 98 | 0.0 | 0.0 | 0.00 | 0.04 | 0.00 | 93 | 1011.1 |
| 20260509094533 | 74 | 98 | 0.0 | 0.0 | 0.00 | 0.04 | 0.00 | 93 | 1011.1 |
| 20260509093031 | 74 | 98 | 0.0 | 0.0 | 0.00 | 0.04 | 0.00 | 93 | 1011.0 |
| 20260509091532 | 75 | 98 | 0.0 | 0.0 | 0.00 | 0.04 | 0.00 | 93 | 1010.9 |
| 20260509090035 | 74 | 98 | 0.0 | 4.0 | 0.00 | 0.04 | 0.00 | 93 | 1011.0 |
| 20260509084535 | 75 | 98 | 3.0 | 6.0 | 0.00 | 0.04 | 0.00 | 94 | 1010.9 |
| 20260509083040 | 75 | 89 | 4.0 | 11.0 | 0.00 | 0.04 | 0.00 | 94 | 1010.9 |
| 20260509081547 | 75 | 146 | 7.0 | 10.0 | 0.00 | 0.04 | 0.00 | 94 | 1010.9 |
| 20260509080057 | 75 | 134 | 7.0 | 10.0 | 0.00 | 0.04 | 0.00 | 94 | 1010.7 |
| 20260509074556 | 75 | 121 | 5.0 | 6.0 | 0.00 | 0.04 | 0.00 | 93 | 1011.0 |
| 20260509073054 | 75 | 136 | 5.0 | 7.0 | 0.00 | 0.04 | 0.00 | 93 | 1011.4 |
| 20260509071605 | 75 | 130 | 5.0 | 8.0 | 0.00 | 0.04 | 0.00 | 94 | 1011.7 |
| 20260509070058 | 75 | 147 | 6.0 | 9.0 | 0.00 | 0.04 | 0.00 | 94 | 1011.6 |
| 20260509064502 | 75 | 141 | 6.0 | 10.0 | 0.00 | 0.04 | 0.00 | 94 | 1011.5 |
| 20260509063004 | 75 | 153 | 7.0 | 11.0 | 0.00 | 0.04 | 0.00 | 94 | 1011.4 |
| 20260509061504 | 75 | 142 | 3.0 | 6.0 | 0.00 | 0.04 | 0.00 | 93 | 1011.7 |
| 20260509060012 | 76 | 135 | 4.0 | 6.0 | 0.00 | 0.04 | 0.00 | 93 | 1011.8 |
| 20260509054523 | 76 | 163 | 4.0 | 11.0 | 0.00 | 0.04 | 0.00 | 93 | 1011.7 |
| 20260509053019 | 75 | 172 | 5.0 | 9.0 | 0.00 | 0.04 | 0.00 | 93 | 1011.7 |